[[{"header":{"parameterUnit":"m.s-1","parameterCategory":2,"la1":30.2991,"la2":30.254,"lo1":-89.0895,"lo2":-89.0444,"dy":0.0017,"dx":0.0017,"nx":28,"ny":28,"refTime":"2024-07-03T03:00:00:Z","depth":"0","parameterNumber":2,"parameterNumberName":"U-component_of_CURRENTS"},"data":[0,0,0,0,0,0,0,0,0,0,0,0,0,0,0,0,0,0,0,0,0,0,0,0,0,0,0,0,0,0,0,0,0,0,0,0,0,0,0,0,0,0,0,0,0,0,0,0,0,0,0,0,0,0,0,0,0,0,0.3191,0.3192,0,0.3345,0.3347,0.3349,0.3443,0.3443,0.3443,0.3443,0.3675,0.3681,0.3687,0,0,0,0,0,0,0,0,0,0,0,0,0,0.3023,0.3026,0.3191,0.3192,0.3194,0.3344,0.3347,0.3349,0.3443,0.3443,0.3443,0.3443,0.3673,0.368,0.3687,0,0,0,0,0,0,0,0,0,0,0,0,0,0.3132,0.3027,0.319,0.3256,0.3263,0.3344,0.3347,0.335,0.3443,0.3443,0.3443,0.3443,0.367,0.3679,0.3688,0.3741,0,0,0.3716,0.372,0,0,0,0,0,0,0,0,0.3125,0.3138,0.3244,0.3251,0.3259,0.3371,0.3373,0.3483,0.3442,0.3378,0.3443,0.3443,0.3578,0.3595,0.3628,0.3752,0.3762,0.3717,0.3722,0.3726,0.3729,0,0,0,0,0,0,0,0.3118,0.3132,0.3256,0.3246,0.3255,0.3293,0.3308,0.3394,0.348,0.3384,0.339,0.3401,0.3583,0.3618,0.3634,0.3765,0.3717,0.3725,0.373,0.3734,0.3983,0.3985,0,0,0,0,0,0,0.3089,0.3125,0.3251,0.326,0.3187,0.3295,0.3313,0.3338,0.3477,0.3497,0.3401,0.3405,0.3603,0.3623,0.3642,0.3792,0.3726,0.3735,0.374,0.3982,0.3984,0.3985,0,0,0,0,0,0,0.3085,0.3099,0.3244,0.3192,0.3212,0.3297,0.3325,0.3341,0.3385,0.3488,0.3511,0.3428,0.3604,0.363,0.3714,0.3799,0.3739,0.3747,0.3981,0.3983,0.3984,0.4041,0,0,0,0,0,0,0.308,0.3097,0.3117,0.319,0.3214,0.331,0.3325,0.3344,0.3389,0.3396,0.3519,0.3541,0.3606,0.3699,0.3723,0.381,0.3754,0.3979,0.3982,0.3984,0.4038,0.4044,0.405,0,0,0,0,0,0.3074,0.3126,0.3118,0.3133,0.3236,0.3311,0.3329,0.339,0.3389,0.3426,0.3484,0.3537,0.3731,0.3707,0.3734,0.3827,0.3978,0.3981,0.3984,0.4035,0.4043,0.405,0,0,0,0,0,0,0.3113,0.3141,0.3135,0.3204,0.3247,0.3326,0.3369,0.3388,0.3463,0.3467,0.3548,0.3574,0.3686,0.3726,0.3698,0.3897,0.3866,0.3874,0.3896,0.3905,0.3911,0.3955,0.3762,0,0,0,0,0,0.311,0.3127,0.3173,0.3226,0.3243,0.3293,0.3331,0.3363,0.3429,0.3462,0.3531,0.3613,0.3718,0.378,0.3862,0.3967,0.4017,0.4041,0.4047,0.4053,0.4103,0.4213,0.4235,0.3994,0.3994,0.3994,0,0,0.3136,0.3156,0.3168,0.3228,0.3263,0.3342,0.332,0.3379,0.3471,0.3477,0.3605,0.3636,0.3744,0.3867,0.3923,0.3916,0.4139,0.4056,0.4061,0.4109,0.4218,0.4243,0.4264,0.3995,0.3995,0.3995,0,0,0.3211,0.3212,0.3252,0.329,0.3332,0.3374,0.3384,0.3444,0.3498,0.3595,0.3631,0.3696,0.3841,0.3938,0.4012,0.4097,0.416,0.4116,0.4212,0.4316,0.4339,0.4359,0.4423,0.4449,0.4131,0.4131,0.4131,0,0.324,0.3313,0.3283,0.335,0.3407,0.339,0.3485,0.3548,0.3629,0.3687,0.3648,0.3845,0.3901,0.41,0.4122,0.4126,0.417,0.4178,0.4329,0.435,0.437,0.4431,0.4459,0.4134,0.4134,0.4134,0.4133,0,0.3352,0.3417,0.3453,0.3522,0.3575,0.3649,0.371,0.3761,0.3788,0.3847,0.3984,0.4026,0.4152,0.4168,0.4186,0.4362,0.4341,0.4315,0.4317,0.4399,0.4456,0.4484,0.4139,0.4138,0.4137,0.4136,0,0,0.3406,0.3509,0.3524,0.3592,0.3673,0.3735,0.3866,0.3994,0.4086,0.4133,0.4273,0.4395,0.4363,0.444,0.4444,0.452,0.466,0.4479,0.4483,0.4555,0.4876,0.4655,0.4663,0.4659,0.4665,0.467,0.4849,0,0.3511,0.3673,0.3695,0.3865,0.3963,0.3986,0.411,0.4208,0.4271,0.4382,0.4438,0.4551,0.4493,0.4523,0.4605,0.464,0.4742,0.4613,0.4777,0.4782,0.4587,0.4692,0.4387,0.4504,0.4876,0.4881,0.4884,0,0.3619,0.3721,0.3906,0.405,0.4088,0.418,0.4341,0.4446,0.4583,0.4621,0.472,0.4738,0.4872,0.4776,0.4953,0.4869,0.4908,0.4918,0.4925,0.4733,0.4614,0.4487,0.454,0.4333,0.4927,0.4924,0.492,0,0.3697,0.3866,0.4022,0.4077,0.4235,0.4317,0.4393,0.4524,0.4597,0.4763,0.4797,0.496,0.4997,0.5105,0.5099,0.5056,0.5252,0.5198,0.5057,0.5041,0.4824,0.4777,0.4712,0.5378,0.5378,0.5377,0.5377,0,0.382,0.394,0.4065,0.4161,0.4313,0.439,0.4532,0.4622,0.4728,0.4803,0.4907,0.4965,0.5076,0.5164,0.5197,0.5191,0.535,0.5118,0.5094,0.4824,0.4777,0.4617,0.4594,0.5384,0.5382,0.5381,0.538,0,0.3892,0.3983,0.4153,0.4319,0.4359,0.4463,0.4556,0.4643,0.4737,0.4832,0.4876,0.5,0.5095,0.5184,0.5328,0.5259,0.5131,0.5286,0.4927,0.4855,0.4452,0.4444,0.4336,0.4239,0.5169,0.5165,0.5161,0,0.3956,0.4062,0.4229,0.4299,0.4373,0.4493,0.4557,0.4647,0.4702,0.4819,0.4858,0.4978,0.5018,0.5129,0.5072,0.5119,0.5011,0.4831,0.469,0.4417,0.4397,0.4275,0.4196,0.4434,0.4425,0.4418,0.4412,0,0.4082,0.4125,0.4251,0.436,0.4445,0.4505,0.4588,0.4606,0.4687,0.4729,0.477,0.4812,0.4863,0.4725,0.4734,0.4711,0.4516,0.4671,0.4519,0.3932,0.368,0.3573,0.4316,0.4345,0.4352,0.4357,0.436,0.4363,0.415,0.4231,0.435,0.4414,0.4484,0.448,0.4452,0.4493,0.4498,0.4444,0.4592,0.4532,0.4405,0.4345,0.4299,0.3898,0.4076,0.3697,0.3754,0.3687,0.3444,0.4001,0.3902,0.3906,0.3909,0.3912,0.3915,0,0.4231,0.4293,0.4383,0.4433,0.4405,0.4441,0.443,0.4315,0.4213,0.4226,0.4187,0.3975,0.374,0.361,0.3207,0.2999,0.2915,0.2881,0.267,0.268,0.3269,0.3076,0.2631,0.2632,0.2632,0.2632,0.2632,0.2632,0.4301,0.4375,0.4369,0.4304,0.4294,0.4165,0.4094,0.3925,0.3863,0.3579,0.341,0.3383,0.3161,0.2764,0.235,0.2285,0.2157,0.1986,0.2139,0.253,0.261,0.2686,0.2492,0.1933,0.1932,0.1342,0.1338,0.1334]},{"header":{"parameterUnit":"m.s-1","parameterCategory":2,"la1":30.2991,"la2":30.254,"lo1":-89.0895,"lo2":-89.0444,"dy":0.0017,"dx":0.0017,"nx":28,"ny":28,"refTime":"2024-07-03T03:00:00:Z","depth":"0","parameterNumber":3,"parameterNumberName":"V-component_of_CURRENTS"},"data":[0,0,0,0,0,0,0,0,0,0,0,0,0,0,0,0,0,0,0,0,0,0,0,0,0,0,0,0,0,0,0,0,0,0,0,0,0,0,0,0,0,0,0,0,0,0,0,0,0,0,0,0,0,0,0,0,0,0,0.0261,0.0261,0,0.0293,0.0294,0.0294,0.0283,0.0282,0.0281,0.028,0.0311,0.0312,0.0314,0,0,0,0,0,0,0,0,0,0,0,0,0,0.0215,0.0216,0.0261,0.0261,0.0262,0.0293,0.0294,0.0294,0.0283,0.0282,0.0281,0.028,0.031,0.0312,0.0314,0,0,0,0,0,0,0,0,0,0,0,0,0,0.0242,0.0217,0.0261,0.0258,0.0258,0.0293,0.0294,0.0295,0.0283,0.0282,0.028,0.0279,0.031,0.0312,0.0314,0.0357,0,0,0.0322,0.0323,0,0,0,0,0,0,0,0,0.0241,0.0244,0.0258,0.0258,0.0258,0.0281,0.0289,0.0315,0.0284,0.0276,0.028,0.0278,0.03,0.0303,0.0316,0.0359,0.036,0.0322,0.0324,0.0325,0.0326,0,0,0,0,0,0,0,0.0239,0.0243,0.0276,0.0259,0.0259,0.0264,0.0266,0.0294,0.0297,0.0276,0.0275,0.0276,0.03,0.0313,0.0316,0.0361,0.0322,0.0324,0.0326,0.0327,0.0519,0.0522,0,0,0,0,0,0,0.0231,0.0241,0.0275,0.0277,0.0243,0.0265,0.0268,0.0277,0.0297,0.0298,0.0277,0.0275,0.031,0.0313,0.0317,0.0427,0.0325,0.0327,0.0329,0.0515,0.0519,0.0523,0,0,0,0,0,0,0.023,0.0234,0.0274,0.0257,0.0262,0.0267,0.0277,0.0278,0.0295,0.0297,0.0298,0.0292,0.0309,0.0314,0.0367,0.0425,0.0328,0.0331,0.0511,0.0516,0.0521,0.0608,0,0,0,0,0,0,0.0229,0.0234,0.0244,0.0257,0.0263,0.0314,0.0278,0.028,0.0296,0.0294,0.0311,0.0312,0.0308,0.0364,0.037,0.0427,0.0333,0.0506,0.0513,0.052,0.0601,0.0616,0.0629,0,0,0,0,0,0.0227,0.0253,0.0245,0.0249,0.0275,0.0316,0.0321,0.032,0.0298,0.0326,0.0338,0.0311,0.0411,0.0369,0.0375,0.0434,0.0503,0.0511,0.0519,0.0595,0.0613,0.0629,0,0,0,0,0,0,0.024,0.0254,0.0246,0.0273,0.0298,0.0313,0.0332,0.033,0.0361,0.0355,0.035,0.0355,0.0426,0.0425,0.0378,0.0514,0.0456,0.0466,0.0512,0.0529,0.0543,0.0569,0.0335,0,0,0,0,0,0.0246,0.027,0.0283,0.0309,0.0317,0.0326,0.034,0.0344,0.0367,0.0378,0.0388,0.0415,0.0467,0.049,0.0525,0.0594,0.0588,0.0642,0.0656,0.0667,0.0697,0.0763,0.0785,0.055,0.055,0.055,0,0,0.0255,0.0269,0.028,0.0314,0.0325,0.0374,0.0333,0.0365,0.042,0.0378,0.045,0.0461,0.0497,0.0578,0.0611,0.0581,0.0722,0.0678,0.0687,0.0711,0.0774,0.0796,0.0816,0.0555,0.0554,0.0553,0,0,0.0308,0.0299,0.0344,0.0371,0.0399,0.041,0.0422,0.0446,0.0468,0.0535,0.053,0.0582,0.0639,0.0689,0.072,0.0839,0.0793,0.0844,0.0936,0.1,0.1019,0.1036,0.1006,0.102,0.0852,0.0852,0.0852,0,0.0318,0.0378,0.0366,0.0423,0.0451,0.0432,0.0495,0.0529,0.0572,0.0611,0.0572,0.0697,0.0706,0.084,0.0875,0.0872,0.0864,0.086,0.1016,0.1033,0.1049,0.1015,0.1029,0.0857,0.0857,0.0856,0.0856,0,0.0412,0.0459,0.0488,0.0552,0.0583,0.0631,0.0663,0.0706,0.0712,0.0745,0.0854,0.0874,0.0954,0.0964,0.0953,0.1089,0.1027,0.1019,0.0964,0.1078,0.1034,0.1047,0.0865,0.0863,0.0861,0.086,0,0,0.0439,0.0535,0.0548,0.0595,0.0651,0.0688,0.078,0.0865,0.094,0.0975,0.1094,0.1161,0.1155,0.1194,0.119,0.1235,0.1307,0.1176,0.1177,0.113,0.1382,0.1312,0.1318,0.1322,0.1326,0.1329,0.1285,0,0.0519,0.0645,0.0673,0.0788,0.0846,0.0864,0.0953,0.1024,0.1077,0.1185,0.1227,0.1327,0.1252,0.1294,0.1337,0.1342,0.1356,0.1316,0.1296,0.1294,0.1206,0.1338,0.1313,0.1273,0.1297,0.1299,0.1301,0,0.0604,0.068,0.0804,0.0907,0.0933,0.0997,0.1116,0.1197,0.1333,0.1378,0.1476,0.1508,0.1613,0.1522,0.1571,0.1547,0.1476,0.1441,0.1439,0.1364,0.1253,0.1178,0.1295,0.1157,0.1321,0.1319,0.1318,0,0.0632,0.0765,0.0864,0.0901,0.1019,0.1079,0.1136,0.1255,0.1347,0.1511,0.16,0.1703,0.1781,0.1753,0.1681,0.1639,0.17,0.1632,0.1484,0.1473,0.1448,0.1429,0.1427,0.1653,0.1653,0.1653,0.1654,0,0.0705,0.0785,0.0883,0.0942,0.1057,0.1114,0.125,0.1327,0.1479,0.1624,0.1698,0.1839,0.185,0.1884,0.1767,0.1682,0.1766,0.1534,0.1496,0.147,0.1455,0.1328,0.1271,0.1652,0.1652,0.1652,0.1653,0,0.0731,0.0802,0.0913,0.1036,0.1077,0.115,0.1295,0.1407,0.1529,0.1732,0.1799,0.1974,0.2031,0.1977,0.1948,0.18,0.1639,0.1635,0.1558,0.1514,0.1232,0.1181,0.117,0.114,0.1478,0.1476,0.1475,0,0.076,0.0824,0.0957,0.1022,0.1081,0.1196,0.1292,0.142,0.1548,0.1813,0.1929,0.2072,0.22,0.2117,0.1926,0.1731,0.1607,0.1516,0.1448,0.1253,0.1169,0.1129,0.1104,0.1411,0.141,0.1408,0.1407,0,0.0807,0.0845,0.0933,0.1061,0.1162,0.1292,0.1434,0.1542,0.173,0.1916,0.2158,0.2287,0.2251,0.2128,0.187,0.1708,0.1444,0.1478,0.1348,0.1198,0.1094,0.1032,0.1326,0.1396,0.1397,0.1398,0.1398,0.1399,0.0821,0.0873,0.0978,0.1097,0.1226,0.1387,0.1503,0.1686,0.1905,0.2198,0.2292,0.2519,0.2274,0.1969,0.1747,0.1294,0.1348,0.1126,0.1095,0.1081,0.1042,0.1265,0.1255,0.1255,0.1255,0.1255,0.1256,0,0.0836,0.0902,0.1011,0.1165,0.1309,0.1377,0.1606,0.1757,0.2025,0.2298,0.2509,0.2521,0.2191,0.1833,0.1219,0.0946,0.0883,0.081,0.0766,0.077,0.1025,0.101,0.0863,0.0863,0.0863,0.0864,0.0864,0.0864,0.085,0.0932,0.0986,0.1199,0.1324,0.1528,0.1663,0.1915,0.2152,0.2457,0.262,0.2739,0.2391,0.1362,0.0727,0.0625,0.0494,0.0456,0.0418,0.0572,0.0598,0.0624,0.0596,0.0365,0.0365,0.0181,0.0178,0.0177]}],[{"header":{"parameterUnit":"m.s-1","parameterCategory":2,"la1":30.2991,"la2":30.254,"lo1":-89.0895,"lo2":-89.0444,"dy":0.0017,"dx":0.0017,"nx":28,"ny":28,"refTime":"2024-07-03T03:00:00:Z","depth":"2","parameterNumber":2,"parameterNumberName":"U-component_of_CURRENTS"},"data":[0,0,0,0,0,0,0,0,0,0,0,0,0,0,0,0,0,0,0,0,0,0,0,0,0,0,0,0,0,0,0,0,0,0,0,0,0,0,0,0,0,0,0,0,0,0,0,0,0,0,0,0,0,0,0,0,0,0,0.2418,0.2419,0,0.2488,0.2489,0.249,0.2526,0.2526,0.2526,0.2526,0.2695,0.2699,0.2704,0,0,0,0,0,0,0,0,0,0,0,0,0,0.2352,0.2353,0.2418,0.2419,0.242,0.2488,0.2489,0.249,0.2526,0.2526,0.2526,0.2526,0.2694,0.2699,0.2704,0,0,0,0,0,0,0,0,0,0,0,0,0,0.2397,0.2353,0.2418,0.2446,0.2449,0.2488,0.2489,0.249,0.2526,0.2526,0.2526,0.2526,0.2692,0.2698,0.2705,0.2746,0,0,0.2726,0.2729,0,0,0,0,0,0,0,0,0.2394,0.24,0.2441,0.2444,0.2448,0.2498,0.2528,0.2581,0.2526,0.2497,0.2526,0.2526,0.2638,0.2649,0.2661,0.2754,0.2761,0.2726,0.273,0.2733,0.2735,0,0,0,0,0,0,0,0.2391,0.2397,0.2446,0.2442,0.2446,0.2467,0.2473,0.2538,0.2568,0.2499,0.2502,0.2509,0.2641,0.2655,0.2666,0.2764,0.2726,0.2732,0.2736,0.2739,0.3042,0.3046,0,0,0,0,0,0,0.2381,0.2394,0.2444,0.2448,0.242,0.2468,0.2475,0.2482,0.2566,0.2578,0.2509,0.2511,0.2643,0.2658,0.2672,0.2776,0.2733,0.274,0.2743,0.3038,0.3043,0.3048,0,0,0,0,0,0,0.2379,0.2384,0.2441,0.2422,0.2431,0.2469,0.2477,0.2483,0.2511,0.2572,0.2586,0.2532,0.2644,0.2663,0.2725,0.2781,0.2743,0.2749,0.3034,0.304,0.3046,0.2952,0,0,0,0,0,0,0.2377,0.2383,0.2392,0.2422,0.2432,0.2472,0.2477,0.2485,0.2515,0.2518,0.2596,0.2611,0.2645,0.2714,0.2731,0.2789,0.2754,0.3029,0.3036,0.3044,0.295,0.2954,0.2957,0,0,0,0,0,0.2374,0.24,0.2392,0.2399,0.244,0.2473,0.248,0.2507,0.2516,0.2532,0.2572,0.2609,0.2778,0.272,0.274,0.2802,0.3025,0.3034,0.3043,0.2948,0.2953,0.2957,0,0,0,0,0,0,0.2389,0.2407,0.2399,0.2431,0.2446,0.2479,0.2514,0.2515,0.2559,0.257,0.2618,0.2636,0.2719,0.2787,0.2723,0.2926,0.2927,0.294,0.2849,0.2854,0.2858,0.2857,0.276,0,0,0,0,0,0.2389,0.2402,0.242,0.2441,0.2463,0.2485,0.2505,0.2512,0.2549,0.2568,0.2626,0.2709,0.2774,0.2826,0.2897,0.2988,0.3049,0.3064,0.3068,0.307,0.3092,0.3223,0.3238,0.3077,0.3077,0.3077,0,0,0.2398,0.2409,0.2417,0.2443,0.2471,0.2492,0.25,0.2536,0.2562,0.2584,0.2666,0.2708,0.2798,0.2887,0.294,0.2948,0.3142,0.3081,0.308,0.3103,0.3233,0.3248,0.3261,0.3084,0.3082,0.3081,0,0,0.2415,0.2442,0.2453,0.247,0.2498,0.2514,0.2524,0.2567,0.261,0.2664,0.2694,0.2758,0.2883,0.2942,0.299,0.3074,0.3141,0.3132,0.3159,0.3283,0.3296,0.3308,0.3352,0.3369,0.3151,0.3151,0.3151,0,0.2425,0.2435,0.2463,0.2478,0.2508,0.2524,0.255,0.2589,0.2641,0.2672,0.2696,0.2858,0.2915,0.3013,0.3041,0.3078,0.3139,0.3106,0.328,0.3294,0.3308,0.3351,0.3371,0.3147,0.3148,0.3148,0.3148,0,0.2436,0.2451,0.2477,0.2492,0.2528,0.2559,0.2609,0.2648,0.2697,0.2717,0.283,0.2911,0.3002,0.3052,0.3064,0.3204,0.3207,0.324,0.3241,0.3316,0.3359,0.3381,0.3142,0.3144,0.3145,0.3145,0,0,0.2445,0.2475,0.2481,0.2473,0.2544,0.255,0.2635,0.2684,0.2723,0.2802,0.2878,0.2992,0.3018,0.3081,0.3133,0.3254,0.3364,0.3293,0.3301,0.3288,0.3596,0.335,0.335,0.3428,0.3433,0.3437,0.3563,0,0.2447,0.2442,0.2493,0.2502,0.2509,0.2577,0.2643,0.2683,0.2769,0.2842,0.2936,0.3059,0.304,0.3128,0.3206,0.3372,0.343,0.3324,0.3571,0.3577,0.331,0.3371,0.3068,0.3136,0.3584,0.3588,0.3591,0,0.244,0.2432,0.2464,0.2472,0.2495,0.2535,0.2633,0.2681,0.2789,0.2869,0.2966,0.3069,0.3241,0.3242,0.3485,0.3426,0.3481,0.3585,0.3593,0.3419,0.3374,0.3155,0.316,0.3628,0.3625,0.3622,0.362,0,0.2394,0.2399,0.2421,0.2436,0.2482,0.2545,0.2576,0.269,0.2808,0.2935,0.3077,0.319,0.3379,0.3484,0.363,0.3614,0.3875,0.388,0.3679,0.3661,0.3481,0.3437,0.4003,0.4003,0.4002,0.4002,0.4002,0,0.2377,0.2357,0.2397,0.2418,0.246,0.2492,0.2633,0.2667,0.2846,0.2977,0.3098,0.3271,0.3479,0.3635,0.3672,0.3718,0.3896,0.3687,0.3692,0.3432,0.3384,0.3891,0.3877,0.4007,0.4006,0.4005,0.4004,0,0.2319,0.2348,0.2362,0.2428,0.2468,0.2492,0.2716,0.2785,0.2959,0.3168,0.3267,0.3462,0.3624,0.3727,0.3931,0.382,0.388,0.3817,0.3438,0.3392,0.3566,0.3546,0.3659,0.3652,0.3646,0.3641,0.3636,0,0.2281,0.2298,0.2398,0.2436,0.2496,0.259,0.2676,0.2842,0.2962,0.3265,0.334,0.3591,0.3625,0.3737,0.3623,0.3576,0.3741,0.3282,0.3172,0.3544,0.354,0.353,0.3519,0.2904,0.2894,0.2886,0.2879,0,0.2257,0.233,0.2365,0.2446,0.2546,0.2656,0.2787,0.2922,0.3106,0.3257,0.3378,0.3446,0.3467,0.3252,0.317,0.3101,0.3261,0.3106,0.369,0.299,0.283,0.2824,0.2841,0.2806,0.2814,0.2819,0.2823,0.2826,0.2274,0.2304,0.2404,0.2447,0.2555,0.2674,0.2746,0.2844,0.2988,0.3085,0.3198,0.3097,0.3071,0.2722,0.2603,0.2503,0.2734,0.2654,0.2683,0.272,0.2562,0.2395,0.2259,0.2262,0.2266,0.2269,0.2272,0,0.2305,0.2343,0.2378,0.2477,0.2532,0.2629,0.2775,0.2722,0.2748,0.2771,0.2752,0.2384,0.2211,0.2212,0.1912,0.1848,0.186,0.1809,0.1857,0.1928,0.1991,0.18,0.1294,0.1291,0.1289,0.1286,0,0,0.2336,0.235,0.2339,0.2425,0.2498,0.2583,0.264,0.2478,0.2411,0.2164,0.2047,0.2091,0.2116,0.1686,0.1602,0.1427,0.1672,0.1341,0.2122,0.225,0.2311,0.2464,0.2245,0,0,0,0,0]},{"header":{"parameterUnit":"m.s-1","parameterCategory":2,"la1":30.2991,"la2":30.254,"lo1":-89.0895,"lo2":-89.0444,"dy":0.0017,"dx":0.0017,"nx":28,"ny":28,"refTime":"2024-07-03T03:00:00:Z","depth":"2","parameterNumber":3,"parameterNumberName":"V-component_of_CURRENTS"},"data":[0,0,0,0,0,0,0,0,0,0,0,0,0,0,0,0,0,0,0,0,0,0,0,0,0,0,0,0,0,0,0,0,0,0,0,0,0,0,0,0,0,0,0,0,0,0,0,0,0,0,0,0,0,0,0,0,0,0,0.0097,0.0097,0,0.0097,0.0098,0.0098,0.007,0.0069,0.0068,0.0068,0.0034,0.0034,0.0033,0,0,0,0,0,0,0,0,0,0,0,0,0,0.0066,0.0067,0.0097,0.0097,0.0097,0.0097,0.0098,0.0098,0.007,0.0069,0.0068,0.0067,0.0034,0.0034,0.0033,0,0,0,0,0,0,0,0,0,0,0,0,0,0.0075,0.0067,0.0097,0.0083,0.0082,0.0097,0.0098,0.0098,0.007,0.0069,0.0068,0.0067,0.0034,0.0034,0.0033,0.0054,0,0,0.0033,0.0032,0,0,0,0,0,0,0,0,0.0074,0.0076,0.0086,0.0084,0.0083,0.0082,0.0074,0.0081,0.0071,0.0075,0.0068,0.0066,0.0048,0.0046,0.005,0.0053,0.0051,0.0032,0.0032,0.0032,0.0032,0,0,0,0,0,0,0,0.0074,0.0076,0.0098,0.0086,0.0084,0.0075,0.0075,0.0075,0.0067,0.0075,0.0073,0.0072,0.0046,0.005,0.0048,0.0051,0.0033,0.0032,0.0032,0.0032,0.0083,0.0084,0,0,0,0,0,0,0.0075,0.0076,0.0098,0.0098,0.0075,0.0076,0.0076,0.0084,0.0068,0.0065,0.0073,0.0071,0.0051,0.0049,0.0047,0.006,0.0032,0.0032,0.0032,0.0081,0.0083,0.0085,0,0,0,0,0,0,0.0075,0.0077,0.0098,0.0086,0.0087,0.0078,0.0087,0.0085,0.0088,0.0067,0.0063,0.0079,0.005,0.0047,0.0057,0.0058,0.0032,0.0032,0.008,0.0082,0.0084,0.0092,0,0,0,0,0,0,0.0074,0.0078,0.0084,0.0086,0.0088,0.0111,0.0088,0.0085,0.009,0.0087,0.0071,0.0067,0.0049,0.0058,0.0057,0.0057,0.0031,0.0078,0.0081,0.0083,0.009,0.0094,0.0098,0,0,0,0,0,0.0073,0.0088,0.0084,0.0087,0.0097,0.0112,0.0113,0.0102,0.0091,0.01,0.0093,0.0067,0.0075,0.0059,0.0058,0.0058,0.0076,0.008,0.0083,0.0088,0.0093,0.0098,0,0,0,0,0,0,0.0072,0.0087,0.0082,0.0099,0.0106,0.0107,0.0113,0.011,0.0112,0.011,0.0087,0.0083,0.0092,0.0087,0.0069,0.0086,0.0072,0.0076,0.0076,0.0081,0.0086,0.0115,0.0031,0,0,0,0,0,0.0077,0.0097,0.0102,0.0117,0.012,0.012,0.0124,0.0122,0.0124,0.0124,0.0114,0.011,0.0107,0.0103,0.0105,0.0115,0.0127,0.0118,0.0122,0.0125,0.0151,0.0204,0.0215,0.0096,0.0096,0.0096,0,0,0.0077,0.0091,0.0099,0.0119,0.0121,0.0137,0.012,0.0135,0.0142,0.0121,0.0131,0.0126,0.0117,0.0124,0.0128,0.0116,0.0154,0.0129,0.0132,0.0157,0.0209,0.0221,0.0231,0.0099,0.0098,0.0098,0,0,0.0097,0.0104,0.0126,0.014,0.0156,0.0156,0.0163,0.0172,0.0167,0.0185,0.0166,0.0182,0.0171,0.0172,0.0168,0.0206,0.0179,0.0188,0.0223,0.0273,0.0283,0.0293,0.027,0.0277,0.0184,0.0184,0.0184,0,0.0094,0.0128,0.0134,0.0161,0.0172,0.0166,0.0189,0.0188,0.0199,0.0205,0.0192,0.0212,0.0204,0.0216,0.0223,0.0215,0.0212,0.0194,0.0278,0.0288,0.0297,0.0272,0.028,0.0185,0.0185,0.0185,0.0185,0,0.0134,0.0158,0.0174,0.0205,0.0217,0.0239,0.0238,0.025,0.0246,0.0248,0.0268,0.0269,0.0278,0.0273,0.0256,0.0305,0.0266,0.0277,0.026,0.0309,0.0279,0.0288,0.0186,0.0186,0.0186,0.0186,0,0,0.0136,0.0189,0.0196,0.0226,0.0244,0.0268,0.0274,0.0289,0.0316,0.0313,0.0345,0.0344,0.0341,0.034,0.0318,0.0366,0.0407,0.0346,0.0348,0.0314,0.0461,0.0386,0.0386,0.0425,0.0428,0.043,0.0393,0,0.0163,0.0228,0.0239,0.0294,0.0326,0.0325,0.0351,0.0365,0.0361,0.0393,0.0383,0.0408,0.0358,0.0371,0.04,0.045,0.0439,0.0413,0.0429,0.0429,0.035,0.0399,0.0391,0.0355,0.0401,0.0402,0.0403,0,0.0195,0.0243,0.0296,0.0368,0.0383,0.0408,0.0453,0.0475,0.0492,0.0492,0.0486,0.0475,0.0519,0.0479,0.0538,0.052,0.0474,0.0491,0.049,0.0435,0.0372,0.0327,0.0369,0.0417,0.0416,0.0415,0.0414,0,0.0212,0.0282,0.033,0.0352,0.0424,0.0446,0.048,0.0507,0.0543,0.0549,0.0587,0.0591,0.0634,0.0624,0.0609,0.0584,0.0676,0.0643,0.05,0.049,0.05,0.0487,0.0639,0.0639,0.0639,0.0639,0.0639,0,0.0239,0.0289,0.0348,0.0385,0.0479,0.0495,0.057,0.0598,0.0634,0.0726,0.064,0.0725,0.0686,0.0707,0.0653,0.0616,0.0691,0.0522,0.05,0.0493,0.0482,0.0563,0.0555,0.0637,0.0638,0.0638,0.0638,0,0.0257,0.0289,0.037,0.0452,0.049,0.0556,0.0644,0.0717,0.0721,0.0833,0.0844,0.0859,0.0899,0.08,0.0813,0.0689,0.0658,0.0584,0.0535,0.0508,0.0408,0.04,0.0446,0.0443,0.0441,0.044,0.0438,0,0.0278,0.0315,0.0426,0.0507,0.0549,0.0639,0.0735,0.0762,0.0841,0.0959,0.1052,0.1059,0.1112,0.1022,0.0814,0.0634,0.0626,0.0467,0.0422,0.0426,0.04,0.0396,0.0392,0.041,0.0409,0.0407,0.0406,0,0.0331,0.0357,0.0434,0.0586,0.0696,0.082,0.094,0.1011,0.1095,0.121,0.1394,0.1438,0.126,0.1102,0.0755,0.063,0.0506,0.043,0.0517,0.0451,0.0388,0.0363,0.0362,0.0395,0.0396,0.0397,0.0398,0.0398,0.0382,0.0445,0.0541,0.0691,0.0827,0.0998,0.1094,0.1257,0.143,0.1602,0.1632,0.166,0.1382,0.0935,0.0699,0.0386,0.0402,0.0302,0.0309,0.0317,0.0311,0.0247,0.0222,0.0222,0.0222,0.0222,0.0223,0,0.0465,0.0534,0.0659,0.0835,0.0987,0.1043,0.1245,0.1365,0.1613,0.1748,0.1863,0.1551,0.1312,0.0984,0.0504,0.0242,0.0229,0.0168,0.0228,0.024,0.0251,0.0244,0.0136,0.0135,0.0135,0.0134,0,0,0.0516,0.064,0.0693,0.0937,0.1063,0.1238,0.135,0.1578,0.1685,0.1848,0.1819,0.1736,0.1344,0.0985,0.0644,0.04,0.0378,0.0336,0.0428,0.0551,0.0565,0.0342,0.0345,0,0,0,0,0]}],[{"header":{"parameterUnit":"m.s-1","parameterCategory":2,"la1":30.2991,"la2":30.254,"lo1":-89.0895,"lo2":-89.0444,"dy":0.0017,"dx":0.0017,"nx":28,"ny":28,"refTime":"2024-07-03T03:00:00:Z","depth":"4","parameterNumber":2,"parameterNumberName":"U-component_of_CURRENTS"},"data":[0,0,0,0,0,0,0,0,0,0,0,0,0,0,0,0,0,0,0,0,0,0,0,0,0,0,0,0,0,0,0,0,0,0,0,0,0,0,0,0,0,0,0,0,0,0,0,0,0,0,0,0,0,0,0,0,0,0,0.1271,0.127,0,0.1241,0.1242,0.1242,0.1223,0.1222,0.1222,0.1221,0.1109,0.1107,0.1105,0,0,0,0,0,0,0,0,0,0,0,0,0,0.1345,0.1344,0.1271,0.127,0.1269,0.1241,0.1242,0.1242,0.1223,0.1222,0.1222,0.1221,0.111,0.1107,0.1104,0,0,0,0,0,0,0,0,0,0,0,0,0,0.132,0.1343,0.1271,0.1251,0.1248,0.1241,0.1242,0.1242,0.1224,0.1222,0.1221,0.122,0.1111,0.1107,0.1104,0.1106,0,0,0.1094,0.1092,0,0,0,0,0,0,0,0,0.1322,0.1318,0.1255,0.1252,0.1249,0.1229,0.1226,0.119,0.1224,0.124,0.1221,0.122,0.1138,0.1132,0.114,0.11,0.1096,0.1093,0.1091,0.109,0.1089,0,0,0,0,0,0,0,0.1323,0.132,0.1266,0.1254,0.125,0.1255,0.125,0.122,0.12,0.1239,0.1236,0.1222,0.1136,0.1144,0.1137,0.1094,0.1093,0.109,0.1088,0.1087,0.1009,0.1009,0,0,0,0,0,0,0.1312,0.1321,0.1267,0.1265,0.1275,0.1254,0.1249,0.1242,0.1202,0.1193,0.1223,0.1221,0.115,0.1141,0.1133,0.1143,0.109,0.1086,0.1085,0.1009,0.1009,0.1009,0,0,0,0,0,0,0.1314,0.1308,0.1268,0.1286,0.128,0.1252,0.1245,0.1242,0.1283,0.1189,0.118,0.1269,0.1149,0.1137,0.1126,0.1138,0.1085,0.1082,0.1009,0.1009,0.1009,0.1156,0,0,0,0,0,0,0.1317,0.1309,0.132,0.1286,0.1279,0.1266,0.1246,0.1242,0.127,0.1269,0.1225,0.1212,0.1147,0.1131,0.1122,0.1132,0.1079,0.1009,0.1009,0.1009,0.1151,0.1161,0.1169,0,0,0,0,0,0.132,0.1307,0.1321,0.1314,0.1288,0.1265,0.1264,0.1245,0.1274,0.1283,0.1265,0.1215,0.1122,0.113,0.1119,0.1128,0.1009,0.1009,0.1009,0.1147,0.1159,0.1169,0,0,0,0,0,0,0.1338,0.1303,0.1316,0.1296,0.1292,0.1259,0.1262,0.1281,0.1285,0.1292,0.1237,0.1221,0.1223,0.115,0.116,0.1099,0.1049,0.1047,0.1157,0.1168,0.1177,0.1209,0.1076,0,0,0,0,0,0.1352,0.1343,0.1319,0.1313,0.1311,0.1315,0.1316,0.1312,0.1298,0.1303,0.1277,0.1235,0.121,0.1173,0.114,0.1111,0.1106,0.1098,0.1107,0.1115,0.113,0.1217,0.1238,0.1008,0.1008,0.1008,0,0,0.1357,0.1339,0.1336,0.1319,0.132,0.1312,0.1315,0.132,0.1321,0.1286,0.1297,0.1295,0.122,0.1195,0.1182,0.1133,0.116,0.1115,0.1124,0.1134,0.122,0.1243,0.1264,0.1008,0.1008,0.1008,0,0,0.1347,0.1356,0.1345,0.1343,0.1339,0.1335,0.1353,0.1353,0.136,0.1371,0.1357,0.1376,0.1306,0.1272,0.1239,0.1277,0.1239,0.1244,0.1284,0.137,0.1392,0.1411,0.1376,0.1391,0.1211,0.1211,0.1212,0,0.136,0.1337,0.1342,0.1331,0.1321,0.1355,0.1345,0.1358,0.136,0.1373,0.1374,0.1379,0.1342,0.1328,0.1339,0.1304,0.1314,0.1259,0.1391,0.141,0.1427,0.1387,0.1402,0.1218,0.1218,0.1217,0.1216,0,0.1338,0.1329,0.1322,0.132,0.1321,0.1315,0.1322,0.135,0.1385,0.1403,0.1445,0.1437,0.1425,0.1421,0.1394,0.1472,0.1424,0.1435,0.1383,0.1461,0.141,0.1423,0.1229,0.1226,0.1224,0.1222,0,0,0.132,0.1308,0.1307,0.129,0.1311,0.1292,0.1321,0.1334,0.1368,0.1411,0.1452,0.1469,0.1518,0.1487,0.1478,0.155,0.1676,0.1549,0.155,0.1545,0.18,0.1635,0.1632,0.1743,0.1748,0.1751,0.1696,0,0.1299,0.1253,0.1271,0.1242,0.1209,0.1254,0.1274,0.1306,0.1355,0.1408,0.1457,0.1508,0.1517,0.155,0.1628,0.1698,0.1727,0.1684,0.1695,0.1693,0.1569,0.1649,0.1765,0.1705,0.1708,0.171,0.1712,0,0.1253,0.1223,0.1187,0.1168,0.1168,0.1185,0.1222,0.1249,0.1344,0.1397,0.1483,0.1538,0.164,0.1658,0.1795,0.178,0.1795,0.1836,0.1834,0.1648,0.1556,0.162,0.1735,0.1733,0.1732,0.173,0.1729,0,0.1167,0.1148,0.1111,0.1106,0.1118,0.1138,0.1171,0.1256,0.1301,0.1425,0.1501,0.1605,0.1689,0.1784,0.1872,0.1858,0.2025,0.1988,0.1818,0.18,0.1902,0.1882,0.2074,0.2074,0.2074,0.2074,0.2074,0,0.1087,0.1051,0.1077,0.1048,0.1036,0.1084,0.1131,0.1182,0.1311,0.1384,0.151,0.1587,0.1759,0.1859,0.1899,0.1904,0.2033,0.1839,0.1809,0.1947,0.1934,0.1906,0.1888,0.2072,0.2073,0.2073,0.2073,0,0.0984,0.0996,0.0948,0.0974,0.0986,0.0987,0.11,0.1144,0.1294,0.14,0.1458,0.1626,0.1753,0.1857,0.1996,0.1917,0.1951,0.1902,0.1993,0.1965,0.1629,0.1618,0.1664,0.1659,0.1654,0.165,0.1647,0,0.0925,0.0888,0.0891,0.0882,0.0904,0.0942,0.0978,0.1112,0.117,0.1401,0.1428,0.1611,0.1701,0.1756,0.1861,0.187,0.1851,0.1791,0.1753,0.1639,0.1604,0.1601,0.1596,0.1639,0.1638,0.1637,0.1636,0,0.0817,0.0836,0.082,0.0814,0.0831,0.0829,0.0894,0.0932,0.1108,0.1261,0.1394,0.1472,0.1578,0.166,0.1695,0.1701,0.1809,0.1741,0.1749,0.1712,0.1609,0.1579,0.158,0.162,0.1622,0.1623,0.1624,0,0.0769,0.0739,0.0748,0.0738,0.0759,0.0725,0.0757,0.0842,0.0928,0.1185,0.1219,0.1423,0.1579,0.1567,0.1609,0.1608,0.1542,0.1449,0.147,0.1489,0.1461,0.1305,0.1212,0,0,0,0,0,0.0698,0.0657,0.0662,0.0633,0.0671,0.0668,0.0712,0.0765,0.0934,0.0989,0.1113,0.1217,0.1305,0.1385,0.1341,0.1449,0.1508,0.1378,0.1402,0.1529,0.1548,0.1533,0,0,0,0,0,0,0.0642,0.0627,0.0632,0.059,0.0567,0.057,0.0587,0.0674,0.0707,0.0902,0.0969,0.1104,0.1212,0.1355,0.1326,0.1337,0.1305,0.1483,0.1477,0.1519,0.1536,0.1551,0.1542,0,0,0,0,0]},{"header":{"parameterUnit":"m.s-1","parameterCategory":2,"la1":30.2991,"la2":30.254,"lo1":-89.0895,"lo2":-89.0444,"dy":0.0017,"dx":0.0017,"nx":28,"ny":28,"refTime":"2024-07-03T03:00:00:Z","depth":"4","parameterNumber":3,"parameterNumberName":"V-component_of_CURRENTS"},"data":[0,0,0,0,0,0,0,0,0,0,0,0,0,0,0,0,0,0,0,0,0,0,0,0,0,0,0,0,0,0,0,0,0,0,0,0,0,0,0,0,0,0,0,0,0,0,0,0,0,0,0,0,0,0,0,0,0,0,0.0096,0.0096,0,0.0098,0.0098,0.0098,0.0102,0.0102,0.0102,0.0102,0.014,0.0141,0.0142,0,0,0,0,0,0,0,0,0,0,0,0,0,0.0065,0.0066,0.0096,0.0096,0.0096,0.0098,0.0098,0.0098,0.0102,0.0102,0.0102,0.0102,0.0139,0.0141,0.0142,0,0,0,0,0,0,0,0,0,0,0,0,0,0.0075,0.0066,0.0096,0.0097,0.0097,0.0098,0.0098,0.0098,0.0102,0.0102,0.0102,0.0102,0.0139,0.0141,0.0142,0.0152,0,0,0.0147,0.0147,0,0,0,0,0,0,0,0,0.0075,0.0076,0.0097,0.0097,0.0097,0.0099,0.0101,0.0117,0.0102,0.0101,0.0102,0.0102,0.0129,0.0131,0.0133,0.0154,0.0155,0.0147,0.0148,0.0148,0.0149,0,0,0,0,0,0,0,0.0074,0.0076,0.0098,0.0097,0.0097,0.0087,0.0089,0.0104,0.0117,0.0101,0.0101,0.01,0.0129,0.0131,0.0134,0.0156,0.0147,0.0148,0.0149,0.015,0.0173,0.0173,0,0,0,0,0,0,0.0073,0.0076,0.0097,0.0098,0.0084,0.0088,0.009,0.0099,0.0116,0.0118,0.01,0.01,0.0128,0.0132,0.0135,0.0146,0.0148,0.015,0.0151,0.0173,0.0173,0.0172,0,0,0,0,0,0,0.0073,0.0076,0.0097,0.0085,0.0087,0.0088,0.0099,0.0099,0.0103,0.0114,0.0117,0.0104,0.0129,0.0133,0.0142,0.0148,0.0151,0.0152,0.0173,0.0173,0.0173,0.0169,0,0,0,0,0,0,0.0072,0.0076,0.0082,0.0085,0.0088,0.0104,0.0099,0.0099,0.0101,0.0102,0.0118,0.0121,0.0129,0.0139,0.0143,0.015,0.0153,0.0174,0.0173,0.0173,0.017,0.0169,0.0168,0,0,0,0,0,0.0071,0.0083,0.0082,0.0085,0.0097,0.0104,0.0104,0.0105,0.0102,0.0108,0.0109,0.0121,0.0138,0.014,0.0145,0.0152,0.0174,0.0173,0.0173,0.017,0.0169,0.0168,0,0,0,0,0,0,0.007,0.0085,0.0084,0.0099,0.0102,0.0104,0.0108,0.0107,0.0112,0.0115,0.0119,0.0123,0.0131,0.014,0.0142,0.0155,0.0158,0.0158,0.0154,0.0153,0.0152,0.017,0.0154,0,0,0,0,0,0.0073,0.0091,0.0094,0.0106,0.0107,0.0107,0.0109,0.0112,0.0116,0.0118,0.0124,0.013,0.0132,0.0141,0.0147,0.0159,0.0155,0.0165,0.0164,0.0163,0.018,0.0166,0.0166,0.017,0.017,0.017,0,0,0.0073,0.0086,0.0093,0.0107,0.0109,0.0121,0.0109,0.0119,0.0133,0.0123,0.014,0.0129,0.0132,0.014,0.0145,0.015,0.0154,0.0162,0.0162,0.0179,0.0166,0.0165,0.0165,0.017,0.017,0.017,0,0,0.0086,0.0095,0.0112,0.0121,0.013,0.0134,0.0137,0.0141,0.0145,0.0155,0.0144,0.0131,0.0148,0.0142,0.0143,0.0141,0.0146,0.0146,0.0164,0.0151,0.015,0.015,0.0122,0.012,0.015,0.015,0.015,0,0.0083,0.0117,0.0116,0.0136,0.0153,0.0141,0.0166,0.0165,0.0172,0.0181,0.0164,0.0155,0.0148,0.015,0.0145,0.014,0.0134,0.0168,0.015,0.015,0.015,0.0121,0.0119,0.015,0.015,0.015,0.015,0,0.011,0.014,0.0151,0.0179,0.0191,0.0214,0.0215,0.0224,0.0221,0.0219,0.0214,0.0181,0.0181,0.0164,0.0157,0.0154,0.0147,0.0146,0.0155,0.015,0.0119,0.0116,0.015,0.015,0.015,0.015,0,0,0.0108,0.0161,0.0167,0.0206,0.0226,0.0248,0.0264,0.0287,0.0307,0.0277,0.0288,0.0253,0.0226,0.0224,0.0195,0.0174,0.0145,0.0167,0.0166,0.0142,0.0111,0.0086,0.0081,0.0147,0.0147,0.0147,0.0082,0,0.0135,0.02,0.0214,0.0279,0.0318,0.0324,0.0348,0.0362,0.0357,0.0358,0.0303,0.0301,0.0252,0.0247,0.0212,0.017,0.0143,0.0163,0.0118,0.0116,0.0098,0.0079,0.0147,0.008,0.0079,0.0078,0.0078,0,0.016,0.0213,0.0284,0.0366,0.038,0.0413,0.0466,0.0487,0.0474,0.0464,0.0429,0.0386,0.0338,0.0296,0.0212,0.0232,0.018,0.0133,0.013,0.0114,0.0088,0.0091,0.0073,0.0074,0.0074,0.0074,0.0075,0,0.0188,0.0265,0.0337,0.0363,0.0435,0.0476,0.0513,0.0526,0.056,0.0535,0.0537,0.0462,0.0431,0.0352,0.0243,0.024,0.0146,0.0128,0.0049,0.0046,0.009,0.0091,0.0077,0.0077,0.0077,0.0077,0.0078,0,0.0229,0.0289,0.0364,0.0412,0.0503,0.0533,0.0617,0.0627,0.0648,0.0682,0.0601,0.0582,0.0449,0.0369,0.0268,0.0146,0.0164,0.0053,0.0032,0.0086,0.0088,0.0087,0.0089,0.0075,0.0075,0.0076,0.0076,0,0.0254,0.0299,0.039,0.0486,0.0524,0.059,0.07,0.075,0.0758,0.0791,0.0788,0.0686,0.057,0.0428,0.0287,0.0187,0.0071,0.0028,0.0089,0.0072,-0.0029,-0.0027,-0.0071,-0.0072,-0.0073,-0.0074,-0.0075,0,0.0277,0.0326,0.0442,0.0499,0.0553,0.0661,0.0734,0.0796,0.0837,0.0847,0.0846,0.0753,0.0664,0.0437,0.028,0.0077,0.0047,-0.0016,-0.0024,-0.0026,-0.0043,-0.0038,-0.0034,-0.0077,-0.0077,-0.0077,-0.0078,0,0.0326,0.0356,0.0432,0.0546,0.064,0.0748,0.0847,0.0888,0.0944,0.0953,0.0901,0.0778,0.0632,0.043,0.0275,0.0129,0.002,-0.0028,-0.0027,-0.0035,-0.0034,-0.0048,-0.0043,-0.0081,-0.0081,-0.0081,-0.008,0,0.0354,0.0405,0.0493,0.0594,0.0703,0.08,0.0858,0.0913,0.0968,0.0966,0.0943,0.0793,0.0704,0.0457,0.0312,0.0163,0.0116,0.0066,0.0061,0.0063,0.0114,0.0135,0.0125,0,0,0,0,0,0.039,0.045,0.0536,0.0655,0.0753,0.0824,0.0915,0.0957,0.1004,0.0979,0.0971,0.0836,0.0604,0.0485,0.0333,0.0273,0.0081,0.0087,0.0019,-0.0103,-0.0098,-0.0065,0,0,0,0,0,0,0.0416,0.0503,0.0543,0.0681,0.0763,0.0891,0.0952,0.0983,0.0958,0.0965,0.0836,0.0795,0.0557,0.0702,0.0332,0.0284,0.0217,-0.0018,-0.0022,-0.0105,-0.0101,-0.0098,-0.0062,0,0,0,0,0]}]]